Regional Weather Roundup
Issued by NWS

Home | Current Version | Previous Version | Text Only | Print | Product List | Glossary On
Versions: 1 2 3 4 5 6 7 8 9 10 11 12 13 14 15 16 17 18 19 20 21 22 23 24 25 26 27 28 29 30 31 32 33 34 35 36 37 38 39 40 41 42 43 44 45 46 47 48 49 50
000
ASUS43 KDMX 301207
RWRIA

WEATHER ROUNDUP FOR IOWA
NATIONAL WEATHER SERVICE DES MOINES IA
700 AM CDT TUE JUN 30 2015

NOTE: "FAIR" INDICATES FEW OR NO CLOUDS BELOW 12,000 FEET WITH NO
SIGNIFICANT WEATHER AND/OR OBSTRUCTIONS TO VISIBILITY.

* - THESE STATIONS ARE NOT NWS STATIONS...THUS NOT UNDER NWS
QUALITY CONTROL.  THEY ALSO DO NOT REPORT WEATHER SUCH
AS PRECIPITATION OR FOG.

IAZ001>003-012>014-020>022-031>034-043>046-301300-
   NORTHWEST IOWA

CITY           SKY/WX    TMP DP  RH WIND       PRES   REMARKS
CARROLL *      SUNNY     63  63 100 W3        29.93R FOG
CHEROKEE *     PTSUNNY   60  60 100 CALM      29.95R FOG
DENISON *      SUNNY     63  63 100 CALM      29.93R FOG
LE MARS *      SUNNY     64  63  94 CALM      29.96R FOG
ORANGE CITY *  SUNNY     64  63  94 N3        29.95S
SHELDON *      MOSUNNY   61  61 100 NW6       29.95R FOG
SIOUX CITY     CLOUDY    68  62  81 N6        29.96R HAZE
6HR MIN TEMP:  63; 6HR MAX TEMP:  68;

SPENCER        MOSUNNY   61  60  97 NW5       29.94R FOG
6HR MIN TEMP:  58; 6HR MAX TEMP:  63;

STORM LAKE *   SUNNY     63  61  94 NW7       29.95R FOG
$$

IAZ055>058-069>071-079>083-090>094-301300-
   SOUTHWEST IOWA

CITY           SKY/WX    TMP DP  RH WIND       PRES   REMARKS
ATLANTIC *     SUNNY     64  63  94 CALM      29.94R
AUDUBON *      SUNNY     63  59  88 CALM      29.94R FOG
CLARINDA *     SUNNY     64  64 100 CALM      29.95R
COUNCIL BLFS * MOSUNNY   68  64  88 SW5       29.95R
CRESTON *      SUNNY     64  61  88 W7        29.93R
HARLAN  *        N/A    N/A N/A N/A MISG        N/A
LAMONI         MOSUNNY   67  62  84 W8        29.92R
6HR MIN TEMP:  67; 6HR MAX TEMP:  71;

RED OAK *        N/A     63  63 100 CALM      29.94R
SHENANDOAH *   SUNNY     63  63 100 CALM      29.94R
$$

IAZ047>049-059>061-072>074-084-301300-
   CENTRAL IOWA

CITY           SKY/WX    TMP DP  RH WIND       PRES   REMARKS
AMES           MOSUNNY   65  62  90 NW8       29.89R FOG
6HR MIN TEMP:  65; 6HR MAX TEMP:  68;

ANKENY *       SUNNY     66  64  94 W5        29.89R
CHARITON *     SUNNY     66  63  88 W7        29.90R
DES MOINES     CLOUDY    68  62  81 NW3       29.89R HAZE
6HR MIN TEMP:  67; 6HR MAX TEMP:  70;

GRINNELL*      SUNNY     63  61  93 NW5       29.88R FOG
KNOXVILLE *    SUNNY     64  63  94 NW7       29.88R
MARSHALLTOWN   SUNNY     63  61  93 W6        29.87R FOG
6HR MIN TEMP:  62; 6HR MAX TEMP:  65; 6HR PCP: TRACE;

PELLA *        SUNNY     67  66  97 NW6       29.89R
PERRY *          N/A     64  63  94 W6        29.92R FOG
$$

IAZ004>006-015-016-023>025-035-036-301300-
   NORTH CENTRAL IOWA

CITY           SKY/WX    TMP DP  RH WIND       PRES   REMARKS
ALGONA *       SUNNY     64  63  94 NW7       29.92R
CLARION *      SUNNY     63  61  94 NW7       29.90R FOG
ESTHERVILLE    MOSUNNY   62  61  96 NW7       29.93R FOG
6HR MIN TEMP:  61; 6HR MAX TEMP:  64;

FORT DODGE *   PTSUNNY   63  59  88 NW6       29.93R
MASON CITY     MOSUNNY   64  63  96 NW8       29.91R FOG
6HR MIN TEMP:  61; 6HR MAX TEMP:  65;

FOREST CITY *  SUNNY     63  63 100 NW3       29.90R FOG
IOWA FALLS *     N/A     63  61  94 NW6       29.90R FOG
$$

IAZ007>011-017>019-026>030-037>042-050>054-066-301300-
   NORTHEAST IOWA

CITY           SKY/WX    TMP DP  RH WIND       PRES   REMARKS
CEDAR RAPIDS   SUNNY     62  61  96 CALM      29.85R HAZE
6HR MIN TEMP:  59; 6HR MAX TEMP:  62;

CHARLES CITY * SUNNY     59  59 100 CALM      29.88R FOG
CLINTON *      SUNNY     61  59  94 W3        29.88R
DECORAH *        N/A    N/A N/A N/A MISG        N/A
DUBUQUE        SUNNY     62  58  86 N5        29.86R
6HR MIN TEMP:  59; 6HR MAX TEMP:  62;

MONTICELLO *   SUNNY     61  61 100 CALM      29.85R FOG
OELWEIN *      SUNNY     61  61 100 NE3       29.87S
WATERLOO       SUNNY     62  60  93 CALM      29.86R FOG
6HR MIN TEMP:  59; 6HR MAX TEMP:  64;

$$

IAZ064-065-067-068-078-301300-
   EAST CENTRAL IOWA

CITY           SKY/WX    TMP DP  RH WIND       PRES   REMARKS
DAVENPORT      MOSUNNY   63  61  93 NW6       29.86R FOG
6HR MIN TEMP:  60; 6HR MAX TEMP:  65;

IOWA CITY      SUNNY     63  61  93 CALM      29.86R FOG
6HR MIN TEMP:  61; 6HR MAX TEMP:  63;

MT. PLEASANT * SUNNY     67  64  89 W6        29.87R FOG
MUSCATINE *    SUNNY     64  64 100 CALM      29.85R FOG
QUAD CITIES    PTSUNNY   65  62  90 CALM      29.85R FOG
6HR MIN TEMP:  61; 6HR MAX TEMP:  67;

$$

IAZ062-063-075>077-085>089-095>099-301300-
   SOUTHEAST IOWA

CITY           SKY/WX    TMP DP  RH WIND       PRES   REMARKS
BURLINGTON     SUNNY     65  65 100 SW5       29.85R FOG
6HR MIN TEMP:  63; 6HR MAX TEMP:  68;

FAIRFIELD *    SUNNY     66  63  88 MISG      29.87R
FORT MADISON * SUNNY     66  66 100 SW3       29.87R
KEOKUK *       SUNNY     66  64  94 SW5       29.86S
OSKALOOSA *      N/A     64  62  94 W5        29.87R
CENTERVILLE *  SUNNY     66  63  88 W8        29.91R
OTTUMWA        SUNNY     65  63  93 W7        29.86R
6HR MIN TEMP:  64; 6HR MAX TEMP:  69;

WASHINGTON *   SUNNY     66  64  94 W8        29.87R
$$

ABBREVIATIONS USED IN REMARKS
   TC - TEMPERATURES IN CELSIUS
  WCI - WIND CHILL INDEX
   HX - HEAT INDEX
  VSB - VISIBILITY
$$



USA.gov is the U.S. government's official web portal to all federal, state and local government web resources and services.